FW5260 Weather Reports


Display with metric or nautical units.
time (UTC)temp
F
wind
direction
speed
MPH
gust
MPH
rain 1hr
in
rain 24hr
in
rain mn
in
humidity
%
barometer
mb
20260503034746 56 178 1.0 4.0 0.00 0.00 0.00 75 1018.6
20260503034248 56 260 1.0 4.0 0.00 0.00 0.00 75 1018.4
20260503034006 55 303 2.0 4.0 0.00 0.00 0.00 76 1018.7
20260503033248 56 318 1.0 5.0 0.00 0.00 0.00 75 1018.6
20260503032750 56 189 2.0 5.0 0.00 0.00 0.00 73 1018.6
20260503032252 56 174 3.0 4.0 0.00 0.00 0.00 75 1018.4
20260503032008 56 226 3.0 4.0 0.00 0.00 0.00 75 1018.4
20260503031249 56 272 2.0 4.0 0.00 0.00 0.00 75 1018.3
20260503030248 56 241 2.0 6.0 0.00 0.00 0.00 74 1018.3
20260503025747 56 267 2.0 6.0 0.00 0.00 0.00 74 1018.4
20260503025008 55 238 2.0 5.0 0.00 0.00 0.00 74 1018.2
20260503024247 55 262 1.0 4.0 0.00 0.00 0.00 75 1018.4
20260503023249 55 208 4.0 5.0 0.00 0.00 0.00 75 1018.7
20260503022248 55 217 2.0 5.0 0.00 0.00 0.00 75 1018.3
20260503022014 55 24 2.0 5.0 0.00 0.00 0.00 74 1018.4
20260503021305 56 187 4.0 5.0 0.00 0.00 0.00 74 1018.6
20260503020015 56 250 1.0 8.0 0.00 0.00 0.00 73 1018.8
20260503015251 56 210 2.0 8.0 0.00 0.00 0.00 73 1018.7
20260503014747 56 240 3.0 6.0 0.00 0.00 0.00 73 1018.6
20260503013750 56 280 4.0 7.0 0.00 0.00 0.00 73 1018.8
20260503013511 56 275 4.0 5.0 0.00 0.00 0.00 73 1018.8
20260503012746 56 269 2.0 5.0 0.00 0.00 0.00 73 1018.7
20260503011506 56 336 4.0 4.0 0.00 0.00 0.00 72 1018.6
20260503005749 56 309 1.0 6.0 0.00 0.00 0.00 72 1018.9
20260503005248 56 209 3.0 4.0 0.00 0.00 0.00 73 1019.0
20260503005007 56 293 0.0 4.0 0.00 0.00 0.00 73 1018.8
20260503004513 56 251 1.0 4.0 0.00 0.00 0.00 73 1019.2
20260503004006 56 309 0.0 4.0 0.00 0.00 0.00 73 1019.1
20260503003251 56 295 0.0 4.0 0.00 0.00 0.00 72 1019.3
20260503002747 56 219 2.0 4.0 0.00 0.00 0.00 72 1019.3
20260503002251 56 269 1.0 4.0 0.00 0.00 0.00 71 1019.4
20260503001517 57 279 2.0 5.0 0.00 0.00 0.00 70 1019.5
20260503000746 57 228 3.0 6.0 0.00 0.00 0.00 71 1019.4
20260503000515 57 232 3.0 6.0 0.00 0.00 0.00 71 1019.5
20260502235249 57 305 2.0 5.0 0.00 0.00 0.00 71 1019.7
20260502234748 57 212 2.0 5.0 0.00 0.00 0.00 71 1019.5
20260502234252 57 178 2.0 5.0 0.00 0.00 0.00 71 1019.9
20260502233751 57 248 3.0 5.0 0.00 0.00 0.00 70 1019.7
20260502233248 57 264 1.0 5.0 0.00 0.00 0.00 70 1019.8
20260502232747 57 217 0.0 6.0 0.00 0.00 0.00 70 1019.7
20260502232248 57 142 0.0 6.0 0.00 0.00 0.00 70 1019.8
20260502232006 57 197 0.0 6.0 0.00 0.00 0.00 70 1020.0
20260502231248 57 166 1.0 6.0 0.00 0.00 0.00 69 1019.7
20260502230747 57 253 3.0 5.0 0.00 0.00 0.00 69 1019.8
20260502230515 57 193 2.0 6.0 0.00 0.00 0.00 69 1019.8
20260502225746 58 236 3.0 6.0 0.00 0.00 0.00 69 1019.9
20260502225251 58 330 3.0 5.0 0.00 0.00 0.00 69 1019.7
20260502224747 57 221 2.0 4.0 0.00 0.00 0.00 70 1019.9
20260502224249 57 312 4.0 5.0 0.00 0.00 0.00 69 1019.9
20260502223750 57 324 2.0 5.0 0.00 0.00 0.00 69 1019.9
20260502223251 57 308 3.0 5.0 0.00 0.00 0.00 69 1019.9
20260502222747 58 308 3.0 5.0 0.00 0.00 0.00 68 1019.8
20260502222252 58 216 2.0 4.0 0.00 0.00 0.00 68 1019.9
20260502221512 58 215 1.0 5.0 0.00 0.00 0.00 67 1020.1
20260502220746 58 284 4.0 6.0 0.00 0.00 0.00 66 1019.9
20260502220248 58 277 2.0 6.0 0.00 0.00 0.00 66 1019.9
20260502215746 58 344 4.0 4.0 0.00 0.00 0.00 67 1020.2
20260502215248 58 253 3.0 4.0 0.00 0.00 0.00 67 1020.0
20260502214248 58 327 2.0 5.0 0.00 0.00 0.00 66 1020.1
20260502213750 58 310 0.0 6.0 0.00 0.00 0.00 66 1019.9
20260502213248 59 216 3.0 6.0 0.00 0.00 0.00 65 1019.9
20260502212249 58 310 2.0 5.0 0.00 0.00 0.00 65 1019.7
20260502211749 58 290 1.0 5.0 0.00 0.00 0.00 65 1019.8
20260502211248 59 240 3.0 5.0 0.00 0.00 0.00 65 1019.9
20260502210251 59 312 5.0 5.0 0.00 0.00 0.00 64 1020.0
20260502205749 59 313 1.0 5.0 0.00 0.00 0.00 64 1019.8
20260502204747 59 284 1.0 4.0 0.00 0.00 0.00 65 1019.8
20260502204248 59 304 2.0 4.0 0.00 0.00 0.00 64 1020.0
20260502203746 59 285 3.0 4.0 0.00 0.00 0.00 63 1020.0
20260502203515 59 279 2.0 5.0 0.00 0.00 0.00 63 1020.1
20260502202748 60 277 2.0 5.0 0.00 0.00 0.00 62 1020.2
20260502201746 60 291 2.0 5.0 0.00 0.00 0.00 61 1020.1
20260502201511 60 310 1.0 5.0 0.00 0.00 0.00 60 1020.1
20260502201011 60 299 2.0 7.0 0.00 0.00 0.00 60 1020.0
20260502200247 60 291 4.0 7.0 0.00 0.00 0.00 60 1019.9
20260502195746 61 292 4.0 6.0 0.00 0.00 0.00 60 1020.0
20260502195251 61 230 3.0 6.0 0.00 0.00 0.00 59 1019.7
20260502194247 61 292 4.0 6.0 0.00 0.00 0.00 59 1019.8
20260502193749 61 301 1.0 5.0 0.00 0.00 0.00 60 1019.7
20260502193508 62 265 1.0 4.0 0.00 0.00 0.00 58 1019.7
20260502193006 62 238 2.0 4.0 0.00 0.00 0.00 58 1019.7
20260502192247 62 269 2.0 5.0 0.00 0.00 0.00 57 1019.5
20260502191748 62 319 3.0 6.0 0.00 0.00 0.00 58 1019.6
20260502191511 62 306 3.0 6.0 0.00 0.00 0.00 57 1019.7
20260502191008 63 0 3.0 7.0 0.00 0.00 0.00 57 1019.5
20260502185746 62 276 2.0 4.0 0.00 0.00 0.00 57 1019.5
20260502185247 62 295 1.0 4.0 0.00 0.00 0.00 57 1019.5
20260502184746 63 268 3.0 4.0 0.00 0.00 0.00 57 1019.3
20260502184247 63 296 3.0 4.0 0.00 0.00 0.00 56 1019.5
20260502183745 63 320 2.0 4.0 0.00 0.00 0.00 57 1019.4
20260502183248 63 330 4.0 4.0 0.00 0.00 0.00 56 1019.3
20260502183010 64 324 3.0 4.0 0.00 0.00 0.00 55 1019.5
20260502182247 64 314 3.0 4.0 0.00 0.00 0.00 57 1019.4
20260502181746 64 294 2.0 4.0 0.00 0.00 0.00 56 1019.2
20260502181247 64 311 3.0 4.0 0.00 0.00 0.00 55 1019.5
20260502180746 64 324 3.0 4.0 0.00 0.00 0.00 54 1019.3
20260502170505 67 305 0.0 3.0 0.00 0.00 0.00 50 1019.3
20260502164248 68 197 3.0 4.0 0.00 0.00 0.00 49 1019.4
20260502164008 68 210 2.0 4.0 0.00 0.00 0.00 47 1019.3
20260502163248 68 171 2.0 4.0 0.00 0.00 0.00 49 1019.5
20260502162247 69 223 2.0 6.0 0.00 0.00 0.00 47 1019.6
20260502160746 69 184 3.0 6.0 0.00 0.00 0.00 48 1019.5
20260502160511 69 194 2.0 6.0 0.00 0.00 0.00 50 1019.6
20260502152005 70 167 2.0 6.0 0.00 0.00 0.00 48 1019.9
20260502151508 70 194 1.0 6.0 0.00 0.00 0.00 47 1020.0
20260502151008 70 158 3.0 6.0 0.00 0.00 0.00 45 1020.2
20260502150250 70 180 3.0 6.0 0.00 0.00 0.00 44 1020.0
20260502130512 70 178 4.0 7.0 0.00 0.00 0.00 45 1021.8
20260502123250 70 160 2.0 8.0 0.00 0.00 0.00 45 1022.2
20260502122247 70 194 2.0 9.0 0.00 0.00 0.00 45 1022.2
20260502122009 70 224 3.0 7.0 0.00 0.00 0.00 47 1022.3
20260502121252 71 157 4.0 6.0 0.00 0.00 0.00 46 1022.4
20260502121009 69 189 3.0 7.0 0.00 0.00 0.00 45 1022.6
20260502120250 70 178 3.0 9.0 0.00 0.00 0.00 46 1022.5
20260502115748 70 169 3.0 9.0 0.00 0.00 0.00 47 1022.5
20260502115247 69 165 4.0 8.0 0.00 0.00 0.00 46 1022.6
20260502114010 69 212 6.0 8.0 0.00 0.00 0.00 49 1023.0
20260502113250 69 158 6.0 10.0 0.00 0.00 0.00 48 1023.1
20260502113009 69 155 8.0 10.0 0.00 0.00 0.00 50 1023.1
20260502112513 69 176 3.0 9.0 0.00 0.00 0.00 47 1023.1
20260502112005 70 182 4.0 9.0 0.00 0.00 0.00 47 1023.4
20260502111009 69 159 4.0 9.0 0.00 0.00 0.00 50 1023.3
20260502110510 69 179 3.0 8.0 0.00 0.00 0.00 47 1023.7
20260502105745 68 165 5.0 11.0 0.00 0.00 0.00 50 1023.6
20260502104745 69 180 5.0 8.0 0.00 0.00 0.00 49 1023.6
20260502103747 68 62 1.0 10.0 0.00 0.00 0.00 50 1023.8
20260502103250 68 195 5.0 10.0 0.00 0.00 0.00 49 1023.9
20260502102746 69 166 3.0 9.0 0.00 0.00 0.00 47 1024.0
20260502102506 68 158 6.0 9.0 0.00 0.00 0.00 46 1024.1
20260502101746 69 151 5.0 9.0 0.00 0.00 0.00 49 1024.2
20260502101248 68 174 4.0 7.0 0.00 0.00 0.00 49 1024.3
20260502100749 67 155 6.0 8.0 0.00 0.00 0.00 49 1024.4
20260502100247 66 180 4.0 8.0 0.00 0.00 0.00 50 1024.3
20260502091250 65 158 3.0 6.0 0.00 0.00 0.00 51 1025.1
20260502091004 65 178 6.0 6.0 0.00 0.00 0.00 50 1025.1
20260502090247 64 185 4.0 8.0 0.00 0.00 0.00 53 1025.1
20260502071250 61 188 2.0 6.0 0.00 0.00 0.00 69 1025.3
20260502070510 62 269 0.0 5.0 0.00 0.00 0.00 69 1025.2
20260502070009 60 198 2.0 5.0 0.00 0.00 0.00 70 1025.5
20260502065518 61 166 2.0 4.0 0.00 0.00 0.00 70 1025.8
20260502064745 61 161 2.0 3.0 0.00 0.00 0.00 70 1025.6
20260502064248 59 192 1.0 5.0 0.00 0.00 0.00 73 1025.6
20260502063746 58 149 2.0 5.0 0.00 0.00 0.00 74 1025.3
20260502062746 58 165 1.0 5.0 0.00 0.00 0.00 75 1025.4
20260502062508 58 195 2.0 4.0 0.00 0.00 0.00 75 1025.5
20260502061248 58 186 3.0 3.0 0.00 0.00 0.00 75 1025.4
20260502061009 56 184 0.0 3.0 0.00 0.00 0.00 76 1025.4
20260502060247 57 132 0.0 3.0 0.00 0.00 0.00 76 1025.5
20260502060012 56 149 1.0 4.0 0.00 0.00 0.00 77 1025.4
20260502055248 56 240 0.0 4.0 0.00 0.00 0.00 77 1025.4
20260502054746 56 188 1.0 4.0 0.00 0.00 0.00 76 1025.8
20260502054250 57 140 2.0 3.0 0.00 0.00 0.00 72 1025.6
20260502053745 57 174 1.0 5.0 0.00 0.00 0.00 71 1025.4
20260502053248 56 239 2.0 5.0 0.00 0.00 0.00 72 1025.6
20260502052746 57 279 1.0 3.0 0.00 0.00 0.00 71 1025.8
20260502052247 56 201 0.0 3.0 0.00 0.00 0.00 71 1025.5
20260502052008 55 151 2.0 5.0 0.00 0.00 0.00 73 1025.4
20260502051510 54 269 2.0 5.0 0.00 0.00 0.00 73 1025.4
20260502045247 52 268 1.0 5.0 0.00 0.00 0.00 77 1025.3
20260502045008 52 271 4.0 5.0 0.00 0.00 0.00 77 1025.5
20260502044246 51 354 3.0 4.0 0.00 0.00 0.00 78 1025.3
20260502043746 51 312 1.0 5.0 0.00 0.00 0.00 79 1025.5
20260502043002 50 253 3.0 6.0 0.00 0.00 0.00 80 1025.4
20260502042247 50 327 2.0 6.0 0.00 0.00 0.00 80 1025.3
20260502041508 50 327 2.0 8.0 0.00 0.00 0.00 80 1025.2
20260502040746 50 299 3.0 5.0 0.00 0.00 0.00 80 1025.4
20260502035745 50 249 1.0 6.0 0.00 0.00 0.00 79 1025.0